Weather History for KFSO - April, 2014

Change the Weather History Date:

Monday, April 14, 2014

  Actual Average (KPBG) Record (KPBG)
Temperature  
Mean Temperature 63 °F 42 °F  
Max Temperature 82 °F 53 °F 83 °F (1968)
Min Temperature 44 °F 32 °F 19 °F (1992)
Degree Days  
Heating Degree Days 2 23  
Month to date heating degree days 364  
Since 1 July heating degree days 7047  
Cooling Degree Days 0 0  
Month to date cooling degree days 0  
Year to date cooling degree days 0  
Growing Degree Days 13 (Base 50)    
Moisture  
Dew Point 52 °F    
Average Humidity 64    
Maximum Humidity 92    
Minimum Humidity 33    
Precipitation  
Precipitation 0.00 in - 0.78 in (1961)
Month to date precipitation  
Year to date precipitation  
Sea Level Pressure  
Sea Level Pressure 29.70 in    
Wind  
Wind Speed 9 mph (South)    
Max Wind Speed 22 mph    
Max Gust Speed 34 mph    
Visibility 9 miles    
Events Fog , Rain    
T = Trace of Precipitation, MM = Missing Value Source: NWS Daily Summary

Daily Weather History Graph

Daily Weather History Graph

Search for Another Location

Airport or City:

Trip Planner

Search our weather history database for the weather conditions in past years. The results will help you decide how hot, cold, wet, or windy it might be!

Date:

Astronomy

Apr. 14, 2014 Rise Set
Actual Time 6:09 AM EDT 7:36 PM EDT
Civil Twilight 5:39 AM EDT 8:07 PM EDT
Nautical Twilight 5:02 AM EDT 8:44 PM EDT
Astronomical Twilight 4:22 AM EDT 9:23 PM EDT
Moon 7:11 PM EDT (4/14) 5:42 AM EDT (4/14)
Length of Visible Light 14h 28m
Length of Day
13h 26m
Full, 100% of the Moon is Illuminated
Apr 14
Full
Apr 15
Full
Apr 22
Last Quarter
Apr 29
New
May 6
First Quarter

Hourly Weather History & Observations

Time (EDT) Temp. Dew Point Humidity Pressure Visibility Wind Dir Wind Speed Gust Speed Precip Events Conditions
12:15 AM 50.9 °F 47.7 °F 89% 29.86 in 10.0 mi SE 8.1 mph - N/A   Light Drizzle
12:35 AM 50.9 °F 47.7 °F 89% 29.85 in 10.0 mi SE 6.9 mph - N/A   Overcast
12:55 AM 52.3 °F 48.9 °F 88% 29.84 in 10.0 mi SE 9.2 mph - N/A Rain Rain
1:15 AM 53.6 °F 50.0 °F 88% 29.85 in 10.0 mi SSE 3.5 mph - N/A Rain Rain
1:35 AM 52.9 °F 49.5 °F 88% 29.84 in 5.0 mi Calm Calm - N/A Rain Light Rain
1:55 AM 50.9 °F 47.7 °F 89% 29.86 in 2.0 mi South 5.8 mph - N/A Rain Heavy Rain
2:15 AM 48.4 °F 45.5 °F 90% 29.84 in 4.0 mi SSE 6.9 mph - N/A   Mostly Cloudy
2:35 AM 51.3 °F 48.7 °F 91% 29.82 in 5.0 mi SE 9.2 mph - N/A   Mostly Cloudy
2:55 AM 53.6 °F 50.9 °F 91% 29.81 in 10.0 mi SE 5.8 mph - N/A   Mostly Cloudy
3:15 AM 55.9 °F 52.7 °F 89% 29.81 in 10.0 mi SE 6.9 mph - N/A   Mostly Cloudy
3:35 AM 54.7 °F 50.9 °F 87% 29.81 in 10.0 mi South 3.5 mph - N/A   Scattered Clouds
3:55 AM 52.0 °F 48.6 °F 88% 29.81 in 10.0 mi Calm Calm - N/A   Clear
4:15 AM 48.4 °F 45.3 °F 89% 29.81 in 0.5 mi SW 3.5 mph - N/A Fog Fog
4:35 AM 48.4 °F 45.5 °F 90% 29.80 in 7.0 mi Calm Calm - N/A   Clear
4:55 AM 46.0 °F 43.0 °F 89% 29.79 in 5.0 mi Calm Calm - N/A   Clear
5:15 AM 45.1 °F 42.3 °F 90% 29.78 in 2.5 mi Calm Calm - N/A   Clear
5:35 AM 45.9 °F 43.2 °F 90% 29.77 in 1.2 mi Calm Calm - N/A   Mist
5:55 AM 44.6 °F 41.9 °F 90% 29.76 in 0.5 mi Calm Calm - N/A Fog Fog
6:15 AM 48.2 °F 45.7 °F 91% 29.74 in 5.0 mi SSE 4.6 mph - N/A   Clear
6:35 AM 55.6 °F 53.2 °F 92% 29.73 in 10.0 mi South 12.7 mph 17.3 mph N/A   Clear
6:55 AM 61.0 °F 53.1 °F 75% 29.73 in 10.0 mi South 12.7 mph 18.4 mph N/A   Clear
7:15 AM 62.4 °F 52.5 °F 70% 29.73 in 10.0 mi South 11.5 mph 18.4 mph N/A   Clear
7:35 AM 63.5 °F 52.7 °F 68% 29.73 in 10.0 mi South 10.4 mph 17.3 mph N/A   Clear
7:55 AM 65.5 °F 53.4 °F 65% 29.73 in 10.0 mi South 10.4 mph 23.0 mph N/A   Clear
8:15 AM 67.1 °F 54.3 °F 63% 29.72 in 10.0 mi South 12.7 mph 21.9 mph N/A   Clear
8:35 AM 70.9 °F 56.3 °F 60% 29.72 in 10.0 mi South 13.8 mph 27.6 mph N/A   Clear
8:55 AM 71.1 °F 55.9 °F 59% 29.71 in 10.0 mi South 16.1 mph 25.3 mph N/A   Clear
9:15 AM 71.1 °F 54.9 °F 56% 29.71 in 10.0 mi South 16.1 mph 25.3 mph N/A   Clear
9:35 AM 71.1 °F 53.8 °F 54% 29.70 in 10.0 mi South 15.0 mph 26.5 mph N/A   Clear
9:55 AM 73.4 °F 54.7 °F 52% 29.69 in 10.0 mi South 11.5 mph 26.5 mph N/A   Clear
10:15 AM 76.1 °F 55.8 °F 49% 29.70 in 10.0 mi South 11.5 mph 24.2 mph N/A   Clear
10:35 AM 76.1 °F 54.5 °F 47% 29.69 in 10.0 mi SSW 16.1 mph 28.8 mph N/A   Clear
10:55 AM 76.1 °F 54.7 °F 47% 29.68 in 10.0 mi South 12.7 mph 26.5 mph N/A   Clear
11:15 AM 76.1 °F 54.5 °F 47% 29.68 in 10.0 mi South 12.7 mph 20.7 mph N/A   Clear
11:35 AM 77.2 °F 53.8 °F 44% 29.68 in 10.0 mi South 12.7 mph 20.7 mph N/A   Clear
11:55 AM 77.0 °F 52.9 °F 43% 29.68 in 10.0 mi SSW 10.4 mph 25.3 mph N/A   Clear
12:15 PM 76.1 °F 52.7 °F 44% 29.67 in 10.0 mi South 11.5 mph 20.7 mph N/A   Clear
12:35 PM 78.8 °F 53.6 °F 42% 29.66 in 10.0 mi South 11.5 mph 20.7 mph N/A   Clear
12:55 PM 78.8 °F 51.3 °F 38% 29.65 in 10.0 mi South 18.4 mph 27.6 mph N/A   Clear
1:35 PM 81.1 °F 51.4 °F 36% 29.64 in 10.0 mi SSW 16.1 mph 28.8 mph N/A   Clear
1:55 PM 81.1 °F 50.2 °F 34% 29.63 in 10.0 mi South 15.0 mph 28.8 mph N/A   Clear
2:15 PM 81.1 °F 50.0 °F 34% 29.63 in 10.0 mi South 16.1 mph 29.9 mph N/A   Clear
2:35 PM 81.1 °F 50.9 °F 35% 29.62 in 10.0 mi South 20.7 mph 34.5 mph N/A   Clear
2:55 PM 81.1 °F 50.2 °F 34% 29.61 in 10.0 mi South 17.3 mph 27.6 mph N/A   Clear
3:15 PM 81.3 °F 50.2 °F 34% 29.60 in 10.0 mi South 16.1 mph 34.5 mph N/A   Clear
3:35 PM 81.1 °F 50.4 °F 34% 29.59 in 10.0 mi South 19.6 mph 32.2 mph N/A   Clear
4:15 PM 81.1 °F 51.3 °F 35% 29.58 in 10.0 mi South 17.3 mph 27.6 mph N/A   Clear
4:35 PM 81.1 °F 51.4 °F 36% 29.57 in 10.0 mi South 17.3 mph 27.6 mph N/A   Clear
4:55 PM 82.4 °F 50.7 °F 33% 29.56 in 10.0 mi South 12.7 mph 32.2 mph N/A   Clear
5:15 PM 81.1 °F 50.0 °F 34% 29.55 in 10.0 mi South 18.4 mph 32.2 mph N/A   Clear
5:35 PM 80.2 °F 50.0 °F 35% 29.53 in 10.0 mi South 21.9 mph 34.5 mph N/A   Clear
5:55 PM 78.8 °F 48.7 °F 35% 29.55 in 10.0 mi South 13.8 mph 29.9 mph N/A   Clear
6:15 PM 78.8 °F 48.9 °F 35% 29.55 in 10.0 mi South 17.3 mph 26.5 mph N/A   Clear
6:35 PM 78.8 °F 49.5 °F 36% 29.56 in 10.0 mi South 18.4 mph 27.6 mph N/A   Clear
6:55 PM 78.8 °F 50.4 °F 37% 29.57 in 10.0 mi South 12.7 mph 27.6 mph N/A   Scattered Clouds
7:15 PM 76.1 °F 48.7 °F 38% 29.57 in 10.0 mi South 11.5 mph 21.9 mph N/A   Mostly Cloudy
7:35 PM 76.1 °F 48.4 °F 38% 29.58 in 10.0 mi South 20.7 mph 33.4 mph N/A   Scattered Clouds
7:55 PM 76.1 °F 48.6 °F 38% 29.58 in 10.0 mi South 15.0 mph 25.3 mph N/A   Mostly Cloudy
8:15 PM 71.1 °F 50.0 °F 47% 29.64 in 10.0 mi West 6.9 mph 18.4 mph N/A   Overcast
8:35 PM 65.7 °F 57.4 °F 75% 29.66 in 10.0 mi NW 11.5 mph 19.6 mph N/A Rain Rain
8:55 PM 63.5 °F 58.5 °F 84% 29.68 in 10.0 mi West 5.8 mph - N/A Rain Rain
9:15 PM 63.5 °F 58.5 °F 84% 29.71 in 5.0 mi SSW 3.5 mph - N/A Rain Heavy Rain
9:35 PM 62.2 °F 58.1 °F 86% 29.70 in 7.0 mi SSE 5.8 mph - N/A Rain Light Rain
9:55 PM 61.7 °F 57.7 °F 87% 29.69 in 10.0 mi South 6.9 mph - N/A Rain Light Rain
10:15 PM 62.2 °F 58.5 °F 87% 29.70 in 10.0 mi South 8.1 mph - N/A Rain Rain
10:35 PM 62.2 °F 58.1 °F 86% 29.69 in 10.0 mi South 5.8 mph - N/A Rain Rain
10:55 PM 62.2 °F 57.7 °F 85% 29.68 in 10.0 mi South 5.8 mph - N/A Rain Rain
11:15 PM 62.2 °F 57.4 °F 84% 29.68 in 10.0 mi South 4.6 mph - N/A Rain Light Rain
11:35 PM 62.2 °F 57.4 °F 84% 29.67 in 10.0 mi South 6.9 mph - N/A Rain Light Rain
11:55 PM 62.2 °F 57.4 °F 84% 29.66 in 10.0 mi South 9.2 mph - N/A   Drizzle